This demonstration page uses our WeatherBlox Daily Observations layout. Learn more.

Left ArrowRight Arrow

Hourly Observations for May 28, 2015

Temp ( °F °C ) Dew Point ( °F °C ) Humidity (%) Winds ( mph kmh ) Pressure ( in mb ) Visibility ( mi km ) Precip ( " mm )
12:58 am 00:58 Clear 57 13.8 55 12.7 93 93 Calm 30.07 1018 10 16 0.00 0.00
1:58 am 01:58 Clear 56 13.1 54 12.3 95 95 E 3 6 30.06 1018 10 16 0.00 0.00
2:58 am 02:58 Mostly Cloudy 55 12.9 54 12.1 95 95 ESE 3 6 30.04 1017 10 16 0.00 0.00
3:58 am 03:58 Mostly Clear 56 13.2 54 12.4 95 95 E 5 7 30.04 1017 10 16 0.00 0.00
4:58 am 04:58 Clear 57 13.8 54 12 89 89 ESE 8 13 30.04 1017 10 16 0.00 0.00
5:58 am 05:58 Sunny 59 15.2 54 12.1 82 82 E 6 9 30.04 1017 10 16 0.00 0.00
6:58 am 06:58 Partly Cloudy 60 15.8 55 12.8 82 82 ESE 6 9 30.06 1018 10 16 0.00 0.00
7:58 am 07:58 Mostly Sunny 64 18 57 13.8 77 77 ESE 7 11 30.06 1018 10 16 0.00 0.00
8:58 am 08:58 Mostly Sunny 66 19.1 58 14.6 75 75 SE 10 17 30.06 1018 10 16 0.00 0.00
9:58 am 09:58 Partly Cloudy 66 18.9 59 15.1 79 79 SE 9 15 30.04 1017 10 16 0.00 0.00
10:58 am 10:58 Mostly Sunny 67 19.7 60 15.8 78 78 E 8 13 30.01 1016 10 16 0.00 0.00
11:58 am 11:58 Mostly Sunny 69 20.4 62 16.4 78 78 SE 9 15 30.03 1017 10 16 0.00 0.00
12:58 pm 12:58 Sunny 70 21.3 63 17.2 78 78 SSE 10 17 30.03 1017 10 16 0.00 0.00
1:18 pm 13:18 Cloudy with Light Rain 72 22 63 17 73 73 SSE 9 15 30.00 1016 10 16 0.00 0.00
1:34 pm 13:34 Partly Cloudy with Light Rain 72 22 63 17 73 73 SSE 2 4 30.00 1016 10 16 0.00 0.00
1:45 pm 13:45 Mostly Sunny 72 22 63 17 73 73 S 3 6 30.00 1016 10 16 0.00 0.00
1:50 pm 13:50 Partly Cloudy with Drizzle 72 22 63 17 73 73 S 3 6 30.00 1016 10 16 0.00 0.00
1:58 pm 13:58 Partly Cloudy with Light Rain 71 21.8 64 17.6 77 77 Calm 30.02 1017 10 16 0.00 0.03
2:10 pm 14:10 Partly Cloudy 72 22 63 17 73 73 SSE 1 2 30.00 1016 10 16 0.00 0.00
2:32 pm 14:32 Mostly Cloudy with Drizzle 70 21 63 17 78 78 SSE 13 20 30.00 1016 10 16 0.00 0.00
2:57 pm 14:57 Partly Cloudy 68 20 63 17 83 83 SE 12 19 29.97 1015 10 16 0.00 0.00
2:58 pm 14:58 Partly Cloudy 68 20 63 17 83 83 SE 12 19 30.01 1016 10 16 0.00 0.03
3:03 pm 15:03 Partly Cloudy with Drizzle 70 21 63 17 78 78 SSE 14 22 29.97 1015 10 16 0.00 0.00
3:22 pm 15:22 Mostly Sunny 68 20 64 18 88 88 SE 13 20 29.97 1015 10 16 0.00 0.00
3:39 pm 15:39 Partly Cloudy with Drizzle 68 20 64 18 88 88 SSE 13 20 29.97 1015 10 16 0.00 0.00
3:53 pm 15:53 Partly Cloudy 68 20 64 18 88 88 SE 13 20 29.97 1015 10 16 0.00 0.00
3:58 pm 15:58 Mostly Sunny 69 20.4 64 18 86 86 SE 13 20 29.99 1016 10 16 0.00 0.03
4:00 pm 16:00 Partly Cloudy with Light Rain 68 20 64 18 88 88 SE 13 20 29.97 1015 10 16 0.00 0.00
4:20 pm 16:20 Sunny 70 21 64 18 83 83 SE 14 22 29.94 1014 10 16 0.00 0.00
4:58 pm 16:58 Partly Cloudy 72 22.2 64 18 77 77 SE 13 20 29.95 1014 10 16 0.00 0.03
4:59 pm 16:59 Mostly Cloudy 72 22 64 18 78 78 SE 12 19 29.91 1013 10 16 0.00 0.00
5:18 pm 17:18 Mostly Cloudy 72 22 64 18 78 78 SSE 9 15 29.91 1013 10 16 0.00 0.00
5:58 pm 17:58 Mostly Cloudy 73 22.7 64 17.9 74 74 SE 13 20 29.92 1013 10 16 0.00 0.00
6:58 pm 18:58 Mostly Cloudy 72 22.1 64 17.8 77 77 SE 16 26 29.91 1013 10 16 0.00 0.00
7:07 pm 19:07 Mostly Cloudy 72 22 64 18 78 78 SE 14 22 29.88 1012 10 16 0.00 0.00
7:09 pm 19:09 Mostly Cloudy 72 22 64 18 78 78 SSE 16 26 29.88 1012 10 16 0.00 0.00
7:18 pm 19:18 Partly Cloudy 72 22 64 18 78 78 SE 16 26 29.91 1013 10 16 0.00 0.00
7:58 pm 19:58 Mostly Sunny 70 21.3 64 17.7 80 80 SE 16 26 29.90 1012 10 16 0.00 0.00
8:58 pm 20:58 Partly Cloudy 68 20.2 64 17.6 85 85 SE 6 9 29.93 1013 10 16 0.00 0.00
9:35 pm 21:35 Mostly Cloudy 66 19 63 17 88 88 SE 2 4 29.91 1013 10 16 0.00 0.00
9:58 pm 21:58 Mostly Cloudy 67 19.7 63 17.4 87 87 SE 5 7 29.94 1014 10 16 0.00 0.00
10:18 pm 22:18 Partly Cloudy 66 19 63 17 88 88 E 6 9 29.91 1013 10 16 0.00 0.00
10:58 pm 22:58 Clear 64 17.9 62 16.9 94 94 ESE 5 7 29.94 1014 10 16 0.00 0.00
11:58 pm 23:58 Mostly Clear 66 18.8 64 17.5 92 92 SE 8 13 29.92 1013 10 16 0.00 0.00

Powered by AerisWeather